KI4UEM Weather Reports


time (UTC)temp
F
wind
direction
speed
knots
gust
knots
rain 1hr
in
rain 24hr
in
rain mn
in
humidity
%
barometer
mb
20260509064016 61 0.0 0.0 0.00 0.00 0.00 88 1014.5
20260509063016 61 0.0 0.9 0.00 0.00 0.00 88 1014.4
20260509062015 61 0.0 0.0 0.00 0.00 0.00 87 1014.8
20260509061015 61 0.0 0.9 0.00 0.00 0.00 87 1014.8
20260509060016 61 0 0.9 1.7 0.00 0.00 0.00 87 1014.6
20260509055015 62 0.0 0.0 0.00 0.00 0.00 87 1014.9
20260509054016 62 0.0 0.0 0.00 0.00 0.00 87 1015.5
20260509053056 62 0.0 0.0 0.00 0.00 0.00 86 1015.9
20260509052016 62 0.0 0.0 0.00 0.00 0.00 86 1015.9
20260509051015 62 0.0 0.0 0.00 0.00 0.00 85 1015.9
20260509050015 62 0.0 0.0 0.00 0.00 0.00 85 1015.4
20260509045035 62 0.0 0.0 0.00 0.00 0.00 84 1016.1
20260509044015 62 0.0 0.0 0.00 0.00 0.00 83 1016.5
20260509043015 62 0.0 0.0 0.00 0.00 0.00 82 1016.5
20260509042116 63 0.0 0.0 0.00 0.00 0.00 82 1016.5
20260509041015 63 0.0 0.0 0.00 0.00 0.00 81 1016.6
20260509040015 63 0.0 0.0 0.00 0.00 0.00 81 1016.1
20260509035016 63 0.0 0.0 0.00 0.00 0.00 81 1016.4
20260509034015 64 0.0 0.0 0.00 0.00 0.00 81 1016.5
20260509033015 64 0.0 1.7 0.00 0.00 0.00 80 1016.6
20260509032036 64 0.0 1.7 0.00 0.00 0.00 80 1016.5
20260509031016 64 0 0.9 1.7 0.00 0.00 0.00 80 1016.5
20260509030016 64 0.0 1.7 0.00 0.00 0.00 80 1016.5
20260509025036 64 0 0.9 2.6 0.00 0.00 0.00 80 1016.6
20260509024015 64 0 0.9 3.5 0.00 0.00 0.00 80 1016.5
20260509022016 64 0 0.9 4.3 0.00 0.00 0.00 81 1016.4
20260509021015 64 0.0 1.7 0.00 0.00 0.00 80 1016.7
20260509020015 64 0.0 0.9 0.00 0.00 0.00 80 1016.4
20260509015056 65 0.0 0.0 0.00 0.00 0.00 79 1016.6
20260509014016 65 0.0 0.0 0.00 0.00 0.00 79 1016.4
20260509013015 65 0.0 0.0 0.00 0.00 0.00 78 1016.4
20260509012015 66 0.0 0.0 0.00 0.00 0.00 78 1016.1
20260509011016 66 0.0 0.9 0.00 0.00 0.00 78 1016.0
20260509010015 67 0.0 0.0 0.00 0.00 0.00 78 1015.9
20260509005016 67 0.0 0.0 0.00 0.00 0.00 77 1016.0
20260509004015 67 0.0 0.0 0.00 0.00 0.00 76 1015.9
20260509003015 68 0.0 0.0 0.00 0.00 0.00 75 1015.7
20260509002015 69 0.0 0.0 0.00 0.00 0.00 75 1015.5
20260509001015 69 0.0 0.0 0.00 0.00 0.00 73 1015.4
20260509000056 69 0.0 0.0 0.00 0.00 0.00 72 1015.4
20260508235035 70 0.0 0.0 0.00 0.00 0.00 72 1015.5
20260508234017 70 0.0 0.0 0.00 0.00 0.00 68 1015.4
20260508233018 70 0.0 0.0 0.00 0.00 0.00 68 1015.1
20260508232017 70 0.0 0.0 0.00 0.00 0.00 68 1015.1
20260508231056 70 0.0 0.0 0.00 0.00 0.00 67 1015.2
20260508230017 70 0.0 0.0 0.00 0.00 0.00 66 1015.4
20260508225138 70 0.0 0.0 0.00 0.00 0.00 64 1015.5
20260508224017 71 0.0 0.0 0.00 0.00 0.00 63 1015.3
20260508223017 71 0.0 0.9 0.00 0.00 0.00 61 1015.4
20260508222017 71 0.0 1.7 0.00 0.00 0.00 60 1015.6
20260508221017 71 0.0 1.7 0.00 0.00 0.00 57 1015.3
20260508220017 72 0.0 2.6 0.00 0.00 0.00 58 1015.4
20260508215017 72 0.0 1.7 0.00 0.00 0.00 58 1015.3
20260508214017 72 203 0.9 4.3 0.00 0.00 0.00 54 1015.4
20260508213017 72 203 0.9 2.6 0.00 0.00 0.00 53 1015.5
20260508212017 72 203 0.9 1.7 0.00 0.00 0.00 53 1015.3
20260508211017 73 0.0 1.7 0.00 0.00 0.00 50 1015.2
20260508210017 72 203 0.9 2.6 0.00 0.00 0.00 48 1015.4
20260508205017 73 203 0.9 2.6 0.00 0.00 0.00 49 1015.6
20260508204017 72 203 1.7 3.5 0.00 0.00 0.00 49 1015.9
20260508203037 72 203 1.7 5.2 0.00 0.00 0.00 49 1015.9
20260508202017 74 203 1.7 6.1 0.00 0.00 0.00 45 1016.0
20260508201017 74 225 2.6 6.1 0.00 0.00 0.00 50 1015.9
20260508200017 73 225 2.6 6.1 0.00 0.00 0.00 45 1016.0
20260508195037 73 225 2.6 6.1 0.00 0.00 0.00 48 1015.7
20260508194037 74 203 1.7 5.2 0.00 0.00 0.00 50 1016.1
20260508193017 72 203 1.7 6.1 0.00 0.00 0.00 52 1016.0
20260508192017 73 0.0 1.7 0.00 0.00 0.00 51 1016.3
20260508191017 72 113 1.7 3.5 0.00 0.00 0.00 48 1016.7
20260508190017 73 135 1.7 3.5 0.00 0.00 0.00 47 1017.0
20260508185017 73 158 2.6 4.3 0.00 0.00 0.00 46 1017.1
20260508184017 73 158 1.7 7.0 0.00 0.00 0.00 49 1017.0
20260508183018 72 225 3.5 7.0 0.00 0.00 0.00 47 1017.2
20260508182017 73 113 1.7 7.0 0.00 0.00 0.00 48 1017.4
20260508181017 72 135 0.9 4.3 0.00 0.00 0.00 46 1017.4
20260508180017 72 135 1.7 4.3 0.00 0.02 0.00 49 1017.6
20260508175017 71 158 1.7 4.3 0.00 0.03 0.00 47 1017.6
20260508174017 72 180 1.7 6.1 0.00 0.05 0.00 49 1017.7
20260508173037 72 203 2.6 5.2 0.00 0.07 0.00 51 1017.8
20260508172017 71 68 1.7 4.3 0.00 0.09 0.00 47 1017.9
20260508171017 72 90 1.7 6.1 0.00 0.10 0.00 45 1017.9
20260508170017 71 113 1.7 6.1 0.00 0.18 0.00 47 1018.3
20260508165017 71 158 2.6 7.0 0.00 0.20 0.00 53 1018.4
20260508164017 71 158 0.9 5.2 0.00 0.22 0.00 50 1018.5
20260508163017 71 90 1.7 3.5 0.00 0.22 0.00 46 1018.7
20260508162017 70 90 1.7 7.0 0.00 0.22 0.00 52 1018.6
20260508161017 70 113 1.7 6.1 0.00 0.23 0.00 50 1018.6
20260508160017 72 180 1.7 6.1 0.00 0.23 0.00 46 1018.7
20260508155038 71 45 1.7 7.0 0.00 0.23 0.00 48 1018.8
20260508154037 70 135 1.7 7.0 0.00 0.23 0.00 52 1019.0
20260508153017 70 90 1.7 5.2 0.00 0.23 0.00 52 1019.1
20260508152017 70 45 1.7 6.1 0.00 0.24 0.00 50 1019.3
20260508151017 69 90 3.5 7.0 0.00 0.24 0.00 48 1019.3
20260508150017 70 90 2.6 8.7 0.00 0.24 0.00 53 1019.3
20260508145017 69 45 1.7 3.5 0.00 0.24 0.00 53 1019.2
20260508144016 69 90 3.5 7.0 0.00 0.24 0.00 52 1019.4
20260508143017 69 68 2.6 7.0 0.00 0.26 0.00 56 1019.3
20260508142017 67 68 1.7 7.0 0.00 0.28 0.00 60 1019.3
20260508141037 68 90 1.7 3.5 0.00 0.29 0.00 58 1019.4
20260508140016 67 90 2.6 8.7 0.00 0.32 0.00 63 1019.3
20260508135017 66 90 2.6 7.0 0.00 0.38 0.00 64 1019.1
20260508134017 66 113 2.6 5.2 0.00 0.38 0.00 73 1019.1
20260508133016 64 0 2.6 7.8 0.00 0.38 0.00 72 1019.0
20260508132117 63 113 0.9 6.1 0.00 0.38 0.00 74 1018.9
20260508131017 63 45 0.9 3.5 0.00 0.38 0.00 79 1018.6
20260508130117 62 45 1.7 4.3 0.00 0.38 0.00 79 1018.6
20260508125016 61 0 0.9 3.5 0.00 0.38 0.00 83 1018.6
20260508124017 61 0.0 2.6 0.00 0.38 0.00 86 1018.4
20260508123037 60 0 0.9 4.3 0.00 0.38 0.00 88 1018.3
20260508122016 59 0 0.9 3.5 0.00 0.38 0.00 90 1018.3
20260508121016 59 0.0 1.7 0.00 0.38 0.00 92 1018.1
20260508120016 58 0.0 0.9 0.00 0.38 0.00 93 1018.1
20260508115037 56 0.0 0.0 0.00 0.38 0.00 92 1017.9
20260508114016 55 0.0 0.0 0.00 0.38 0.00 92 1017.6
20260508113016 54 0.0 0.0 0.00 0.38 0.00 91 1017.5
20260508112016 54 0.0 0.0 0.00 0.38 0.00 91 1017.2
20260508111036 54 0.0 0.0 0.00 0.38 0.00 91 1017.0
20260508110057 54 0.0 0.0 0.00 0.38 0.00 91 1016.9
20260508105017 54 0.0 0.0 0.00 0.38 0.00 90 1016.7
20260508104016 54 0.0 0.0 0.00 0.38 0.00 90 1016.7
20260508103016 54 0.0 0.0 0.00 0.38 0.00 90 1016.6
20260508102016 55 0.0 0.0 0.00 0.38 0.00 90 1016.3
20260508101016 55 0.0 0.0 0.00 0.38 0.00 89 1016.1
20260508100036 55 0.0 0.0 0.00 0.38 0.00 89 1016.1
20260508095016 55 0.0 0.0 0.00 0.38 0.00 89 1015.9
20260508094016 55 0.0 0.0 0.00 0.39 0.00 88 1016.0
20260508093016 55 0.0 0.0 0.00 0.43 0.00 88 1015.9
20260508092037 56 0.0 0.0 0.00 0.46 0.00 88 1015.5
20260508091016 56 0.0 0.0 0.00 0.50 0.00 88 1015.6
20260508090016 56 0.0 0.0 0.00 0.51 0.00 88 1015.4
20260508085016 57 0.0 0.0 0.00 0.52 0.00 87 1015.4
20260508084056 57 0.0 0.0 0.00 0.53 0.00 87 1015.4
20260508083016 57 0.0 0.0 0.00 0.54 0.00 86 1015.4
20260508082016 58 0.0 0.0 0.00 0.56 0.00 85 1015.6
20260508081016 58 0.0 0.0 0.00 0.56 0.00 85 1015.5
20260508080016 58 0.0 0.0 0.00 0.56 0.00 85 1015.3
20260508075016 59 0.0 0.0 0.00 0.56 0.00 84 1015.2
20260508074016 59 0.0 0.0 0.00 0.56 0.00 84 1015.2
20260508073016 60 0.0 0.0 0.00 0.56 0.00 84 1015.1
20260508072016 60 0.0 0.0 0.00 0.56 0.00 83 1015.2
20260508071016 61 0.0 0.0 0.00 0.56 0.00 84 1015.0
20260508070016 61 0.0 0.0 0.00 0.56 0.00 83 1014.8
20260508065016 61 0.0 1.7 0.00 0.56 0.00 83 1014.9